"DATUM","ETMAALGEMIDDELDE TEMPERATUUR","GEMIDDELD"
2014-01-01,7.1,2.9
2014-01-02,8.7,3.4
2014-01-03,8.8,3.1
2014-01-04,7.3,2.9
2014-01-05,6.1,2.8
2014-01-06,11.3,2.6
2014-01-07,10.8,2.5
2014-01-08,8.6,2.6
2014-01-09,9.4,2.6
2014-01-10,6.5,2.5
2014-01-11,5.1,2.9
2014-01-12,2.0,2.6
2014-01-13,6.1,2.7
2014-01-14,4.8,2.6
2014-01-15,4.5,2.6
2014-01-16,7.5,2.5
2014-01-17,7.4,2.1
2014-01-18,7.0,2.1
2014-01-19,6.0,2.5
2014-01-20,3.7,2.5
2014-01-21,3.9,2.5
2014-01-22,3.3,2.5
2014-01-23,3.0,2.4
2014-01-24,4.5,2.3
2014-01-25,3.9,2.2
2014-01-26,5.4,2.2
2014-01-27,4.1,2.3
2014-01-28,4.6,2.5
2014-01-29,0.1,2.6
2014-01-30,0.6,2.3
2014-01-31,3.1,2.6
2014-02-01,6.4,2.4
2014-02-02,5.1,2.7
2014-02-03,3.9,2.9
2014-02-04,5.8,3.0
2014-02-05,7.4,3.3
2014-02-06,7.8,3.1
2014-02-07,7.6,2.6
2014-02-08,6.9,2.9
2014-02-09,5.9,2.7
2014-02-10,5.1,2.8
2014-02-11,6.0,2.8
2014-02-12,5.8,2.6
2014-02-13,4.9,2.3
2014-02-14,5.1,2.1
2014-02-15,10.0,2.5
2014-02-16,5.7,2.7
2014-02-17,6.0,2.4
2014-02-18,6.0,2.5
2014-02-19,7.8,2.8
2014-02-20,8.2,2.9
2014-02-21,7.0,3.0
2014-02-22,6.6,3.2
2014-02-23,7.5,3.3
2014-02-24,7.8,3.4
2014-02-25,8.7,3.5
2014-02-26,6.7,3.6
2014-02-27,4.9,3.6
2014-02-28,5.4,3.8
2014-03-01,5.9,3.9
2014-03-02,6.2,4.0
2014-03-03,4.9,3.9
2014-03-04,5.2,4.1
2014-03-05,5.6,4.2
2014-03-06,6.5,4.5
2014-03-07,7.8,4.4
2014-03-08,8.7,4.3
2014-03-09,11.3,4.7
2014-03-10,9.8,4.8
2014-03-11,9.3,4.9
2014-03-12,8.3,4.9
2014-03-13,7.9,5.1
2014-03-14,6.7,5.3
2014-03-15,9.9,5.5
2014-03-16,10.5,5.7
2014-03-17,10.2,6.1
2014-03-18,9.3,5.8
2014-03-19,11.3,5.7
2014-03-20,12.9,5.9
2014-03-21,7.8,5.7
2014-03-22,6.6,5.9
2014-03-23,5.2,6.3
2014-03-24,5.6,6.6
2014-03-25,4.8,6.7
2014-03-26,4.5,6.6
2014-03-27,8.6,6.5
2014-03-28,11.0,6.6
2014-03-29,11.5,6.9
2014-03-30,12.3,7.2
2014-03-31,14.7,7.1
2014-04-01,12.7,7.4
2014-04-02,13.7,7.5
2014-04-03,15.2,7.5
2014-04-04,13.0,7.1
2014-04-05,11.9,7.2
2014-04-06,13.1,7.5
2014-04-07,15.6,7.6
2014-04-08,9.1,7.5
2014-04-09,10.7,7.6
2014-04-10,12.1,7.9
2014-04-11,11.3,8.1
2014-04-12,9.9,8.1
2014-04-13,10.5,8.1
2014-04-14,8.9,8.4
2014-04-15,7.2,8.9
2014-04-16,7.4,8.8
2014-04-17,10.9,8.7
2014-04-18,8.6,8.8
2014-04-19,11.2,8.9
2014-04-20,15.5,9.0
2014-04-21,12.4,9.5
2014-04-22,12.5,9.5
2014-04-23,13.4,9.5
2014-04-24,13.6,9.8
2014-04-25,17.1,9.9
2014-04-26,14.2,9.8
2014-04-27,11.6,9.7
2014-04-28,13.2,9.7
2014-04-29,13.8,9.8
2014-04-30,13.1,10.2
2014-05-01,13.0,10.4
2014-05-02,10.0,10.6
2014-05-03,8.4,10.8
2014-05-04,7.9,11.0
2014-05-05,12.2,11.4
2014-05-06,14.6,11.7
2014-05-07,12.7,11.8
2014-05-08,12.2,12.0
2014-05-09,12.5,12.4
2014-05-10,11.6,12.3
2014-05-11,10.2,12.5
2014-05-12,10.8,12.8
2014-05-13,10.3,12.8
2014-05-14,9.6,12.6
2014-05-15,10.1,12.5
2014-05-16,12.1,12.5
2014-05-17,14.2,12.7
2014-05-18,15.9,12.7
2014-05-19,18.4,12.8
2014-05-20,19.9,13.2
2014-05-21,18.1,13.5
2014-05-22,18.2,13.6
2014-05-23,16.4,13.8
2014-05-24,15.0,13.7
2014-05-25,16.0,13.8
2014-05-26,15.8,14.0
2014-05-27,15.6,13.9
2014-05-28,13.1,13.9
2014-05-29,10.4,13.7
2014-05-30,11.9,14.1
2014-05-31,13.3,14.1
2014-06-01,13.5,14.5
2014-06-02,14.0,14.7
2014-06-03,15.1,14.8
2014-06-04,14.6,15.0
2014-06-05,13.0,15.0
2014-06-06,16.3,15.2
2014-06-07,21.0,15.4
2014-06-08,20.0,15.4
2014-06-09,21.6,15.4
2014-06-10,20.4,15.5
2014-06-11,17.5,15.2
2014-06-12,17.1,15.1
2014-06-13,17.8,15.4
2014-06-14,16.0,15.1
2014-06-15,15.6,15.0
2014-06-16,14.8,15.1
2014-06-17,15.3,15.8
2014-06-18,14.9,15.8
2014-06-19,14.2,15.6
2014-06-20,14.0,15.8
2014-06-21,16.0,15.7
2014-06-22,15.3,15.7
2014-06-23,15.4,16.0
2014-06-24,16.0,16.0
2014-06-25,14.7,16.2
2014-06-26,16.7,16.1
2014-06-27,17.5,16.1
2014-06-28,17.1,16.1
2014-06-29,16.0,16.1
2014-06-30,14.1,16.3
2014-07-01,14.2,16.6
2014-07-02,15.0,17.0
2014-07-03,18.4,16.9
2014-07-04,21.6,17.1
2014-07-05,19.9,17.3
2014-07-06,19.0,17.0
2014-07-07,18.1,16.9
2014-07-08,15.2,16.9
2014-07-09,15.6,17.0
2014-07-10,21.6,17.1
2014-07-11,20.0,17.5
2014-07-12,19.0,17.4
2014-07-13,18.7,17.4
2014-07-14,18.4,17.3
2014-07-15,17.3,17.3
2014-07-16,19.5,17.2
2014-07-17,21.9,17.2
2014-07-18,25.1,17.2
2014-07-19,26.4,17.5
2014-07-20,22.1,17.5
2014-07-21,19.5,17.4
2014-07-22,22.6,17.3
2014-07-23,23.2,17.4
2014-07-24,21.5,17.4
2014-07-25,18.5,17.3
2014-07-26,20.9,17.6
2014-07-27,21.2,17.5
2014-07-28,19.5,17.5
2014-07-29,21.2,17.5
2014-07-30,18.4,17.7
2014-07-31,18.8,17.6
2014-08-01,20.3,17.6
2014-08-02,20.5,17.6
2014-08-03,19.6,17.3
2014-08-04,18.4,17.6
2014-08-05,17.7,17.5
2014-08-06,17.6,17.8
2014-08-07,18.2,17.4
2014-08-08,18.5,17.2
2014-08-09,19.1,17.4
2014-08-10,18.2,17.5
2014-08-11,17.1,17.3
2014-08-12,16.3,17.2
2014-08-13,16.7,17.0
2014-08-14,16.2,17.3
2014-08-15,15.5,17.0
2014-08-16,16.1,16.7
2014-08-17,14.9,16.6
2014-08-18,13.8,17.1
2014-08-19,12.4,17.2
2014-08-20,12.6,17.0
2014-08-21,13.8,16.8
2014-08-22,13.6,16.6
2014-08-23,12.7,16.5
2014-08-24,12.5,16.5
2014-08-25,12.7,16.7
2014-08-26,13.7,16.6
2014-08-27,14.2,16.3
2014-08-28,17.2,16.2
2014-08-29,17.3,16.1
2014-08-30,16.3,15.9
2014-08-31,15.1,15.8
2014-09-01,15.3,15.6
2014-09-02,16.7,15.6
2014-09-03,16.3,15.7
2014-09-04,17.7,15.5
2014-09-05,17.6,15.6
2014-09-06,16.6,15.5
2014-09-07,17.0,15.2
2014-09-08,14.1,15.3
2014-09-09,14.5,15.1
2014-09-10,13.9,15.0
2014-09-11,15.9,15.0
2014-09-12,15.6,15.0
2014-09-13,17.0,14.5
2014-09-14,15.7,14.4
2014-09-15,16.8,14.3
2014-09-16,17.5,14.1
2014-09-17,18.0,14.1
2014-09-18,19.3,14.1
2014-09-19,17.8,13.8
2014-09-20,17.8,13.7
2014-09-21,15.8,13.5
2014-09-22,13.4,13.4
2014-09-23,12.6,13.3
2014-09-24,13.0,13.3
2014-09-25,14.2,13.0
2014-09-26,15.3,13.1
2014-09-27,13.3,13.0
2014-09-28,14.7,12.8
2014-09-29,16.0,12.6
2014-09-30,16.2,12.6
2014-10-01,15.9,12.5
2014-10-02,15.7,12.3
2014-10-03,15.0,12.1
2014-10-04,15.6,12.0
2014-10-05,13.2,11.9
2014-10-06,13.8,12.1
2014-10-07,12.2,11.5
2014-10-08,13.2,11.4
2014-10-09,15.0,11.5
2014-10-10,13.4,11.4
2014-10-11,11.3,11.1
2014-10-12,11.9,10.7
2014-10-13,15.1,10.7
2014-10-14,12.4,10.5
2014-10-15,13.7,10.3
2014-10-16,14.2,10.3
2014-10-17,14.6,10.0
2014-10-18,17.3,9.9
2014-10-19,17.1,9.9
2014-10-20,15.1,9.8
2014-10-21,11.2,9.8
2014-10-22,10.0,9.8
2014-10-23,12.4,9.5
2014-10-24,11.6,9.2
2014-10-25,12.6,9.1
2014-10-26,12.7,9.0
2014-10-27,12.7,8.8
2014-10-28,9.9,8.6
2014-10-29,11.0,8.3
2014-10-30,13.0,8.1
2014-10-31,13.5,8.4
2014-11-01,14.1,8.2
2014-11-02,14.8,8.1
2014-11-03,12.5,8.1
2014-11-04,8.9,7.6
2014-11-05,6.0,7.6
2014-11-06,6.1,7.4
2014-11-07,7.7,7.1
2014-11-08,9.8,7.0
2014-11-09,9.5,6.9
2014-11-10,9.6,6.8
2014-11-11,9.5,6.9
2014-11-12,9.3,6.6
2014-11-13,7.9,6.3
2014-11-14,10.3,6.1
2014-11-15,9.7,5.6
2014-11-16,8.4,5.5
2014-11-17,9.5,5.3
2014-11-18,7.9,5.6
2014-11-19,8.0,5.7
2014-11-20,7.1,5.3
2014-11-21,5.2,5.0
2014-11-22,8.3,5.1
2014-11-23,10.6,5.4
2014-11-24,6.5,5.0
2014-11-25,4.1,4.9
2014-11-26,4.9,5.1
2014-11-27,7.4,4.9
2014-11-28,6.3,4.8
2014-11-29,2.8,4.4
2014-11-30,2.5,4.2
2014-12-01,1.5,4.0
2014-12-02,0.6,4.0
2014-12-03,-1.2,4.3
2014-12-04,-0.3,4.4
2014-12-05,3.5,4.1
2014-12-06,3.2,4.0
2014-12-07,3.4,3.9
2014-12-08,3.2,3.8
2014-12-09,2.2,3.7
2014-12-10,6.5,3.3
2014-12-11,6.5,3.7
2014-12-12,7.5,3.6
2014-12-13,4.7,3.6
2014-12-14,2.5,3.5
2014-12-15,5.6,3.4
2014-12-16,5.2,3.1
2014-12-17,8.0,3.3
2014-12-18,11.5,3.1
2014-12-19,9.4,3.2
2014-12-20,7.7,2.8
2014-12-21,7.8,2.9
2014-12-22,11.4,3.2
2014-12-23,11.1,3.4
2014-12-24,8.1,3.6
2014-12-25,5.2,3.6
2014-12-26,1.9,3.1
2014-12-27,0.7,3.2
2014-12-28,-0.9,3.2
2014-12-29,3.5,3.3
2014-12-30,5.0,3.2
2014-12-31,5.2,2.9
